Notices

What's New in latest Release from April 7th, 2021:

- Updated Glossary, including Speed of Maximum Gust, and Total Hourly Precipitation

- Updated national and regional climate services offices contacts and prices information

- Addition of station inventory lists for 1981-2010, 1971-2000, and 1961-1990 Normals.

If you haven't already, please take our survey and provide feedback about our website: https://eccc.sondage-survey.ca/f/LanguageSelection.aspx?s=442ca660-fcf1-47c0-95a9-59707d6fd709

Hourly Data Report for September 23, 2018

TORONTO CITY
ONTARIO
Current Station Operator: ECCC - MSC

43°40'00.000" N
79°24'00.000" W
112.50 m
6158355
71508
XTO

Download Data

Hourly Data (September 2018)
Hourly Data Report for September 23, 2018
TIME
LST
Temp Definition
°C
Dew Point Definition
°C
Rel Hum Definition
%
Precip. Amount Definition
mm

Wind Dir Definition
10's deg

Wind Spd Definition
km/h
Visibility Definition
km
Stn Press Definition
kPa
Hmdx Definition


Wind Chill Definition


Weather Definition


00:00 11.2 7.3 77 0.0 LegendMM LegendMM   101.01     LegendNANA
01:00 10.8 6.1 73 0.0 LegendMM LegendMM   100.99     LegendNANA
02:00 10.7 6.2 74 0.0 LegendMM LegendMM   100.98     LegendNANA
03:00 10.4 6.6 78 0.0 LegendMM LegendMM   101.00     LegendNANA
04:00 10.1 6.6 79 0.0 LegendMM LegendMM   101.02     LegendNANA
05:00 10.7 6.4 74 0.0 LegendMM LegendMM   101.02     LegendNANA
06:00 9.8 6.2 78 0.0 LegendMM LegendMM   100.99     LegendNANA
07:00 10.1 6.7 79 0.0 LegendMM LegendMM   101.02     LegendNANA
08:00 13.2 7.5 68 0.0 LegendMM LegendMM   101.07     LegendNANA
09:00 15.0 6.0 55 0.0 LegendMM LegendMM   101.12     LegendNANA
10:00 16.3 6.0 50 0.0 LegendMM LegendMM   101.13     LegendNANA
11:00 17.2 8.0 55 0.0 LegendMM LegendMM   101.12     LegendNANA
12:00 17.8 8.1 53 0.0 LegendMM LegendMM   101.06     LegendNANA
13:00 17.6 7.3 51 0.0 LegendMM LegendMM   101.04     LegendNANA
14:00 17.9 7.1 49 0.0 LegendMM LegendMM   100.98     LegendNANA
15:00 17.4 7.1 51 0.0 LegendMM LegendMM   100.99     LegendNANA
16:00 17.4 5.2 45 0.0 LegendMM LegendMM   100.99     LegendNANA
17:00 17.0 7.1 52 0.0 LegendMM LegendMM   101.03     LegendNANA
18:00 16.7 7.0 53 0.0 LegendMM LegendMM   101.06     LegendNANA
19:00 16.0 7.8 58 0.0 LegendMM LegendMM   101.10     LegendNANA
20:00 15.8 8.1 60 0.0 LegendMM LegendMM   101.17     LegendNANA
21:00 15.3 8.3 63 0.0 LegendMM LegendMM   101.21     LegendNANA
22:00 15.2 8.3 63 0.0 LegendMM LegendMM   101.24     LegendNANA
23:00 14.7 9.4 70 0.0 LegendMM LegendMM   101.28     LegendNANA

Notes on Data Quality.

Legend

  • E = Estimated
  • M = Missing
  • NA = Not Available*
  • [empty] = Indicates an unobserved value
Date modified: